Погода в Кодиаке

США     57°48′03″N   152°23′04″W
В апреле 2022 года жителям России запретили посещать сайт meteo.paraplan.net по решению Генеральной прокуратуры. Аудитория сайта уменьшилась в 10 раз. Владельцы сайта не видят смысла в поддержке погодного сервера в таких условиях. Сайт будет закрыт в октябре.
темп.,
°C
ветер,
м/с
пор.,
м/с
влажн.,
%
обл.,
%
осадки,
мм/ч
давл.,
гПа
погр.,
м
29 сентября, чт
чт2901:00+9ююв2392100 0.1 99459
04:00+8ю339194 0.1 99547
07:00+8ю228895 0.0 99639
10:00+9з228885 0.0 99778
13:00+9сз238899 0.1 999258
16:00+8сз2387100 0.4 1001256
19:00+7з2490100 2.4 1004242
22:00+6ююз1285100 2.8 100662
30 сентября, пт
пт3001:00+6ю228492 0.3 1008193
04:00+5юз228957 0.6 1010169
07:00+4юз23902 0.0 101183
10:00+5юз22832 0.0 101197
13:00+8вюв12685 0.0 1011703
16:00+9вюв226044 0.0 1010925
19:00+7юв22757 0.1 1009167
22:00+5зюз22825 0.1 100855
1 октября, сб
сб101:00+4зюз228155 0.0 100739
04:00+4юз22800 0.0 100654
07:00+4юз337991 0.0 100681
10:00+6ююз3584100 0.1 1005182
13:00+6зсз019695 0.9 1003101
16:00+9зсз128220 0.9 1004371
19:00+8ссв2289100 0.0 100659
22:00+7сз1190100 0.1 100745
2 октября, вс
вс201:00+7ю1191100 0.0 100833
04:00+6ююз2390100 0.0 100894
07:00+6ююз2388100 0.0 100868
10:00+8ююв2384100 0.0 100884
13:00+10ююв357195 0.0 1008690
16:00+9ююв458198 0.1 1007477
19:00+8юв3489100 0.4 1006157
22:00+8юв2394100 2.7 1006139
3 октября, пн
пн301:00+8вюв2292100 1.6 100644
04:00+8з1191100 2.8 100743
07:00+7зсз2292100 1.9 1008110
10:00+7з228686 2.2 100974
13:00+9сз1282100 0.2 1010356
16:00+9сз238280 0.5 1012368
19:00+8сз239192 0.3 101397
22:00+7сз229192 0.4 101481